STARLINK-2079 (47364 NORAD) Tracking and Keplerian Element Data

This shows tracking and keplerian element data for the satellite.

Feedback or suggestion? Click here.




ElementValue
Catalog47364
NameSTARLINK-2079
Epoch Orbit1347
Epoch Day106.25002315
Epoch Year2021
RAAN170.2478
Inclination53.0476
Eccentricity0.0001081
Argument of Perigee91.8857
Mean Anonmoly54.0091
Mean Motion15.06414888
Decay Rate-0.00015698
L11 47364U 21005R 21106.25002315 -.00015698 00000-0 -10369-2 0 9992
L22 47364 53.0476 170.2478 0001081 91.8857 54.0091 15.06414888 13477

Live tracking and technical data element details for STARLINK-2079 (NORAD 47364). STARLINK-2079 can be tracked NOW for your location showing map with azimuth and elevation plus other details from your city location.

Track the satellite on the map from your city or location and see movement details for azimuth, elevation, latitude, longitude, range, height, and movement on the map or in text.







IsCatalogInMostPopularTable: catalog: 47364, numindb: 16
Update: records affected: 1



GetName: 47364 STARLINK-2079

Hit Count: updated at: Fri, 16 Apr 2021 11:22:22 GMT